QPF
0.02 0.01 0.01 0.01 0.01 0.01 0.00 0.00 0.00 0.00 0.00 0.00 0.01 0.02 0.02 0.01 0.04 0.05 0.04 0.04 0.04 0.01 0.00 0.00 0.00 0.00 0.00 0.00 0.00 0.00 0.01 0.02 0.02 0.02 0.02 0.03 0.03 0.03 0.02 0.02 0.01 0.00 0.00 0.00
0.01 0.01 0.00 0.00 0.01 0.01 0.01 0.01 0.00 0.01 0.00 0.01 0.01 0.01 0.02 0.02 0.03 0.04 0.03 0.04 0.06 0.01 0.00 0.00 0.00 0.00 0.00 0.00 0.00 0.00 0.00 0.01 0.01 0.01 0.01 0.02 0.02 0.02 0.02 0.02 0.02 0.01 0.00 0.00
0.01 0.01 0.00 0.00 0.00 0.01 0.01 0.01 0.01 0.01 0.01 0.02 0.03 0.03 0.01 0.01 0.02 0.03 0.03 0.02 0.02 0.01 0.00 0.00 0.00 0.00 0.00 0.00 0.00 0.00 0.00 0.00 0.01 0.00 0.01 0.01 0.01 0.02 0.03 0.03 0.03 0.02 0.01 0.01
0.01 0.00 0.00 0.00 0.00 0.01 0.01 0.00 0.00 0.00 0.02 0.02 0.02 0.04 0.01 0.00 0.00 0.01 0.02 0.01 0.01 0.01 0.00 0.00 0.00 0.00 0.00 0.00 0.00 0.01 0.01 0.00 0.00 0.01 0.01 0.01 0.02 0.03 0.02 0.02 0.02 0.03 0.02 0.02
0.01 0.00 0.01 0.01 0.01 0.00 0.01 0.00 0.00 0.00 0.01 0.01 0.01 0.02 0.02 0.00 0.00 0.00 0.00 0.00 0.00 0.00 0.00 0.00 0.00 0.00 0.00 0.01 0.01 0.01 0.01 0.00 0.00 0.01 0.01 0.01 0.01 0.02 0.01 0.01 0.01 0.02 0.02 0.02
0.00 0.00 0.00 0.00 0.00 0.00 0.00 0.00 0.00 0.00 0.01 0.02 0.01 0.02 0.02 0.01 0.01 0.00 0.00 0.00 0.00 0.00 0.00 0.00 0.00 0.00 0.00 0.00 0.01 0.01 0.01 0.01 0.00 0.01 0.01 0.01 0.01 0.01 0.01 0.01 0.01 0.01 0.02 0.02
0.00 0.00 0.00 0.00 0.00 0.00 0.00 0.02 0.03 0.03 0.03 0.01 0.00 0.01 0.01 0.00 0.00 0.00 0.00 0.00 0.00 0.00 0.00 0.00 0.00 0.00 0.00 0.01 0.01 0.01 0.01 0.00 0.00 0.00 0.01 0.01 0.01 0.01 0.02 0.01 0.01 0.01 0.01 0.01
0.01 0.00 0.00 0.00 0.00 0.01 0.00 0.02 0.04 0.04 0.03 0.02 0.01 0.01 0.01 0.00 0.00 0.00 0.00 0.00 0.00 0.00 0.00 0.00 0.00 0.00 0.00 0.00 0.00 0.00 0.00 0.00 0.00 0.00 0.00 0.00 0.01 0.01 0.01 0.01 0.00 0.01 0.01 0.01
0.02 0.01 0.00 0.00 0.00 0.00 0.01 0.01 0.02 0.02 0.02 0.01 0.01 0.00 0.00 0.01 0.01 0.00 0.00 0.00 0.00 0.00 0.00 0.00 0.00 0.00 0.00 0.00 0.00 0.00 0.00 0.00 0.00 0.00 0.01 0.00 0.00 0.01 0.01 0.01 0.00 0.01 0.01 0.01
0.02 0.01 0.00 0.00 0.00 0.00 0.00 0.01 0.01 0.02 0.02 0.01 0.01 0.00 0.00 0.00 0.01 0.01 0.01 0.00 0.00 0.00 0.00 0.00 0.00 0.00 0.00 0.00 0.00 0.00 0.00 0.00 0.00 0.00 0.00 0.00 0.00 0.00 0.01 0.01 0.01 0.01 0.01 0.01
0.02 0.02 0.01 0.00 0.00 0.01 0.00 0.01 0.01 0.02 0.02 0.02 0.02 0.01 0.00 0.00 0.00 0.00 0.01 0.00 0.00 0.00 0.00 0.00 0.00 0.00 0.00 0.00 0.00 0.00 0.00 0.00 0.00 0.00 0.00 0.00 0.00 0.00 0.01 0.01 0.00 0.00 0.01 0.01
0.01 0.02 0.02 0.00 0.00 0.00 0.01 0.00 0.01 0.02 0.02 0.02 0.02 0.02 0.00 0.01 0.00 0.00 0.00 0.01 0.01 0.01 0.01 0.00 0.00 0.00 0.00 0.00 0.01 0.01 0.01 0.01 0.01 0.00 0.00 0.00 0.00 0.00 0.00 0.00 0.00 0.01 0.01 0.00
0.02 0.02 0.03 0.02 0.01 0.01 0.01 0.01 0.00 0.01 0.02 0.02 0.02 0.02 0.01 0.00 0.01 0.00 0.00 0.01 0.00 0.01 0.01 0.00 0.00 0.00 0.00 0.00 0.00 0.00 0.01 0.01 0.01 0.00 0.00 0.00 0.00 0.00 0.00 0.01 0.01 0.01 0.01 0.00
0.01 0.02 0.02 0.02 0.02 0.01 0.01 0.01 0.01 0.01 0.01 0.01 0.01 0.01 0.02 0.01 0.02 0.01 0.00 0.00 0.00 0.01 0.01 0.01 0.01 0.00 0.00 0.00 0.00 0.00 0.00 0.00 0.01 0.01 0.00 0.00 0.01 0.01 0.01 0.01 0.01 0.00 0.01 0.01
0.01 0.01 0.01 0.01 0.00 0.00 0.01 0.01 0.01 0.01 0.01 0.01 0.02 0.02 0.02 0.01 0.01 0.01 0.00 0.00 0.00 0.01 0.01 0.01 0.02 0.01 0.00 0.00 0.00 0.00 0.00 0.00 0.00 0.01 0.01 0.01 0.01 0.01 0.01 0.01 0.01 0.01 0.01 0.01
0.02 0.01 0.01 0.01 0.00 0.00 0.01 0.01 0.00 0.01 0.01 0.02 0.03 0.02 0.01 0.01 0.00 0.00 0.01 0.00 0.00 0.00 0.00 0.01 0.01 0.01 0.00 0.00 0.00 0.00 0.00 0.01 0.01 0.01 0.01 0.01 0.01 0.01 0.01 0.01 0.01 0.02 0.02 0.02
0.01 0.01 0.02 0.02 0.01 0.01 0.01 0.01 0.00 0.01 0.01 0.01 0.02 0.03 0.01 0.01 0.00 0.00 0.00 0.00 0.00 0.01 0.00 0.00 0.00 0.00 0.00 0.00 0.00 0.00 0.00 0.00 0.01 0.01 0.01 0.01 0.01 0.01 0.01 0.01 0.02 0.02 0.02 0.02
0.00 0.01 0.02 0.03 0.02 0.02 0.01 0.00 0.00 0.00 0.00 0.00 0.00 0.01 0.02 0.01 0.00 0.00 0.00 0.00 0.00 0.00 0.00 0.00 0.00 0.00 0.00 0.00 0.00 0.00 0.00 0.00 0.01 0.01 0.01 0.01 0.00 0.00 0.01 0.01 0.01 0.02 0.02 0.02
0.00 0.01 0.02 0.03 0.04 0.03 0.01 0.00 0.00 0.00 0.00 0.00 0.00 0.00 0.01 0.00 0.00 0.00 0.00 0.00 0.00 0.00 0.00 0.00 0.00 0.00 0.00 0.00 0.00 0.00 0.00 0.00 0.01 0.01 0.01 0.01 0.01 0.01 0.01 0.01 0.01 0.02 0.02 0.02
0.00 0.01 0.01 0.02 0.04 0.04 0.01 0.00 0.00 0.00 0.01 0.00 0.00 0.00 0.00 0.00 0.01 0.00 0.00 0.00 0.00 0.00 0.00 0.00 0.00 0.00 0.00 0.00 0.00 0.00 0.00 0.01 0.01 0.02 0.03 0.02 0.02 0.01 0.01 0.02 0.02 0.02 0.02 0.02
0.01 0.01 0.01 0.02 0.03 0.03 0.01 0.01 0.00 0.01 0.01 0.00 0.00 0.00 0.01 0.01 0.01 0.00 0.00 0.00 0.00 0.00 0.00 0.00 0.00 0.00 0.00 0.00 0.00 0.00 0.01 0.01 0.02 0.02 0.02 0.02 0.02 0.02 0.02 0.02 0.02 0.02 0.03 0.04
0.01 0.01 0.02 0.02 0.04 0.02 0.01 0.01 0.01 0.02 0.01 0.00 0.00 0.01 0.02 0.01 0.01 0.00 0.00 0.00 0.00 0.00 0.00 0.00 0.00 0.00 0.00 0.00 0.00 0.01 0.01 0.01 0.02 0.02 0.02 0.02 0.02 0.01 0.01 0.02 0.03 0.03 0.03 0.04
0.01 0.01 0.02 0.02 0.02 0.02 0.01 0.01 0.01 0.01 0.01 0.01 0.01 0.02 0.02 0.02 0.02 0.01 0.00 0.00 0.00 0.00 0.00 0.00 0.01 0.01 0.01 0.01 0.01 0.01 0.01 0.01 0.01 0.01 0.02 0.01 0.01 0.01 0.02 0.02 0.04 0.04 0.04 0.04
0.00 0.00 0.01 0.01 0.01 0.00 0.01 0.01 0.00 0.00 0.01 0.01 0.02 0.02 0.03 0.03 0.03 0.02 0.01 0.00 0.00 0.00 0.00 0.01 0.01 0.01 0.01 0.01 0.01 0.01 0.01 0.01 0.01 0.01 0.01 0.02 0.01 0.01 0.02 0.03 0.04 0.04 0.04 0.04
0.00 0.00 0.00 0.00 0.00 0.00 0.00 0.00 0.00 0.01 0.01 0.01 0.02 0.02 0.02 0.01 0.01 0.01 0.01 0.00 0.00 0.00 0.00 0.01 0.01 0.01 0.01 0.01 0.01 0.01 0.01 0.01 0.01 0.01 0.01 0.02 0.02 0.02 0.02 0.03 0.03 0.03 0.03 0.03
0.00 0.00 0.00 0.00 0.00 0.00 0.00 0.01 0.01 0.01 0.01 0.01 0.01 0.01 0.00 0.00 0.00 0.00 0.00 0.00 0.00 0.00 0.00 0.01 0.01 0.01 0.01 0.01 0.01 0.01 0.01 0.01 0.01 0.01 0.01 0.02 0.03 0.03 0.03 0.03 0.03 0.04 0.04 0.04
MSLP
1006.57 1007.24 1007.81 1008.28 1008.66 1008.99 1009.28 1009.56 1009.82 1010.04 1010.18 1010.23 1010.17 1010.00 1009.77 1009.50 1009.26 1009.10 1009.04 1009.11 1009.27 1009.51 1009.77 1010.03 1010.23 1010.36 1010.44 1010.46 1010.47 1010.50 1010.56 1010.68 1010.84 1011.05 1011.29 1011.52 1011.72 1011.88 1011.98 1012.01 1011.99 1011.92 1011.80 1011.67
1007.09 1007.61 1008.03 1008.35 1008.63 1008.89 1009.17 1009.46 1009.76 1010.01 1010.18 1010.22 1010.12 1009.89 1009.56 1009.21 1008.89 1008.68 1008.63 1008.73 1008.98 1009.33 1009.72 1010.09 1010.39 1010.59 1010.68 1010.70 1010.67 1010.65 1010.67 1010.76 1010.93 1011.17 1011.45 1011.74 1012.02 1012.24 1012.38 1012.44 1012.43 1012.35 1012.23 1012.08
1007.42 1007.80 1008.08 1008.28 1008.48 1008.71 1008.99 1009.33 1009.68 1009.99 1010.20 1010.24 1010.11 1009.80 1009.38 1008.92 1008.51 1008.23 1008.14 1008.26 1008.56 1009.00 1009.50 1009.98 1010.38 1010.66 1010.80 1010.84 1010.80 1010.76 1010.77 1010.85 1011.02 1011.28 1011.60 1011.94 1012.27 1012.54 1012.72 1012.82 1012.83 1012.76 1012.65 1012.52
1007.57 1007.83 1007.99 1008.11 1008.27 1008.50 1008.83 1009.24 1009.68 1010.06 1010.31 1010.37 1010.20 1009.82 1009.30 1008.71 1008.18 1007.79 1007.63 1007.71 1008.02 1008.51 1009.09 1009.66 1010.16 1010.52 1010.74 1010.83 1010.84 1010.82 1010.84 1010.94 1011.13 1011.41 1011.76 1012.13 1012.49 1012.79 1013.01 1013.14 1013.17 1013.14 1013.05 1012.94
1007.56 1007.73 1007.82 1007.91 1008.07 1008.34 1008.75 1009.25 1009.79 1010.25 1010.56 1010.63 1010.43 1009.98 1009.34 1008.62 1007.95 1007.43 1007.15 1007.15 1007.42 1007.91 1008.52 1009.15 1009.73 1010.18 1010.49 1010.67 1010.76 1010.81 1010.88 1011.02 1011.25 1011.56 1011.93 1012.33 1012.71 1013.03 1013.27 1013.42 1013.48 1013.48 1013.43 1013.36
1007.45 1007.58 1007.65 1007.74 1007.94 1008.29 1008.79 1009.40 1010.03 1010.58 1010.94 1011.02 1010.79 1010.27 1009.53 1008.67 1007.85 1007.18 1006.76 1006.65 1006.83 1007.27 1007.86 1008.52 1009.16 1009.69 1010.11 1010.39 1010.58 1010.73 1010.89 1011.10 1011.38 1011.73 1012.13 1012.54 1012.92 1013.25 1013.51 1013.68 1013.77 1013.81 1013.80 1013.76
1007.32 1007.44 1007.53 1007.67 1007.94 1008.37 1008.96 1009.67 1010.38 1010.99 1011.39 1011.48 1011.22 1010.64 1009.81 1008.85 1007.89 1007.08 1006.52 1006.27 1006.34 1006.69 1007.24 1007.89 1008.55 1009.15 1009.65 1010.05 1010.36 1010.62 1010.88 1011.18 1011.52 1011.92 1012.34 1012.76 1013.16 1013.50 1013.76 1013.95 1014.07 1014.14 1014.17 1014.18
1007.20 1007.35 1007.50 1007.71 1008.06 1008.57 1009.24 1010.01 1010.77 1011.42 1011.83 1011.91 1011.64 1011.02 1010.13 1009.09 1008.04 1007.12 1006.44 1006.08 1006.03 1006.28 1006.75 1007.37 1008.03 1008.66 1009.23 1009.72 1010.13 1010.51 1010.88 1011.26 1011.68 1012.12 1012.58 1013.02 1013.42 1013.76 1014.04 1014.24 1014.39 1014.50 1014.57 1014.61
1007.09 1007.32 1007.54 1007.84 1008.27 1008.84 1009.56 1010.35 1011.12 1011.75 1012.15 1012.22 1011.93 1011.30 1010.39 1009.32 1008.24 1007.27 1006.52 1006.07 1005.93 1006.09 1006.49 1007.04 1007.67 1008.31 1008.92 1009.47 1009.97 1010.45 1010.91 1011.38 1011.86 1012.35 1012.84 1013.30 1013.71 1014.06 1014.35 1014.58 1014.76 1014.90 1015.00 1015.09
1006.99 1007.30 1007.63 1008.01 1008.50 1009.12 1009.83 1010.60 1011.32 1011.91 1012.25 1012.29 1011.99 1011.37 1010.50 1009.47 1008.42 1007.47 1006.72 1006.24 1006.06 1006.15 1006.48 1006.97 1007.55 1008.17 1008.79 1009.37 1009.93 1010.47 1011.00 1011.54 1012.07 1012.61 1013.12 1013.60 1014.03 1014.40 1014.71 1014.96 1015.16 1015.34 1015.48 1015.60
1006.86 1007.27 1007.69 1008.16 1008.69 1009.31 1009.99 1010.68 1011.32 1011.81 1012.08 1012.08 1011.77 1011.19 1010.39 1009.45 1008.50 1007.64 1006.96 1006.52 1006.34 1006.41 1006.70 1007.14 1007.68 1008.26 1008.86 1009.45 1010.03 1010.61 1011.18 1011.76 1012.34 1012.91 1013.45 1013.95 1014.39 1014.78 1015.10 1015.38 1015.62 1015.82 1016.00 1016.15
1006.67 1007.18 1007.70 1008.23 1008.79 1009.38 1009.99 1010.58 1011.09 1011.47 1011.64 1011.58 1011.27 1010.73 1010.02 1009.22 1008.42 1007.72 1007.17 1006.82 1006.70 1006.80 1007.07 1007.48 1007.99 1008.53 1009.11 1009.68 1010.27 1010.86 1011.45 1012.06 1012.66 1013.25 1013.81 1014.32 1014.78 1015.19 1015.53 1015.82 1016.08 1016.31 1016.51 1016.68
1006.44 1007.04 1007.63 1008.20 1008.76 1009.32 1009.84 1010.30 1010.67 1010.90 1010.96 1010.83 1010.51 1010.03 1009.43 1008.78 1008.16 1007.63 1007.25 1007.05 1007.03 1007.18 1007.49 1007.90 1008.38 1008.91 1009.46 1010.02 1010.60 1011.19 1011.79 1012.41 1013.02 1013.63 1014.20 1014.72 1015.19 1015.60 1015.95 1016.26 1016.53 1016.77 1016.99 1017.17
1006.20 1006.86 1007.50 1008.09 1008.64 1009.13 1009.55 1009.87 1010.09 1010.18 1010.12 1009.92 1009.59 1009.15 1008.66 1008.16 1007.71 1007.37 1007.17 1007.12 1007.22 1007.47 1007.82 1008.26 1008.75 1009.28 1009.82 1010.38 1010.96 1011.55 1012.16 1012.79 1013.41 1014.02 1014.60 1015.12 1015.60 1016.00 1016.36 1016.66 1016.93 1017.18 1017.39 1017.58
1006.02 1006.70 1007.35 1007.93 1008.44 1008.86 1009.17 1009.37 1009.45 1009.40 1009.23 1008.96 1008.60 1008.20 1007.78 1007.41 1007.12 1006.94 1006.90 1007.00 1007.22 1007.56 1007.99 1008.48 1009.01 1009.55 1010.11 1010.69 1011.28 1011.89 1012.52 1013.15 1013.79 1014.40 1014.98 1015.50 1015.97 1016.37 1016.71 1017.01 1017.26 1017.49 1017.70 1017.88
1005.97 1006.62 1007.23 1007.77 1008.22 1008.55 1008.77 1008.85 1008.81 1008.64 1008.38 1008.04 1007.66 1007.27 1006.90 1006.62 1006.44 1006.38 1006.47 1006.68 1007.01 1007.45 1007.95 1008.50 1009.08 1009.67 1010.27 1010.88 1011.51 1012.15 1012.81 1013.47 1014.11 1014.73 1015.31 1015.83 1016.29 1016.68 1017.00 1017.28 1017.51 1017.72 1017.90 1018.07
1006.08 1006.65 1007.19 1007.65 1008.01 1008.26 1008.38 1008.37 1008.23 1007.98 1007.64 1007.25 1006.84 1006.45 1006.11 1005.87 1005.76 1005.77 1005.93 1006.23 1006.63 1007.13 1007.70 1008.31 1008.95 1009.60 1010.26 1010.94 1011.62 1012.31 1013.00 1013.69 1014.36 1014.99 1015.57 1016.09 1016.54 1016.91 1017.22 1017.47 1017.68 1017.87 1018.03 1018.18
1006.39 1006.83 1007.24 1007.59 1007.85 1008.01 1008.04 1007.96 1007.76 1007.45 1007.08 1006.65 1006.22 1005.82 1005.49 1005.27 1005.17 1005.21 1005.40 1005.72 1006.16 1006.70 1007.31 1007.97 1008.67 1009.38 1010.11 1010.85 1011.59 1012.34 1013.08 1013.81 1014.50 1015.16 1015.75 1016.28 1016.72 1017.09 1017.39 1017.63 1017.82 1017.99 1018.13 1018.27
1006.85 1007.12 1007.37 1007.59 1007.73 1007.80 1007.77 1007.63 1007.40 1007.08 1006.69 1006.26 1005.83 1005.43 1005.09 1004.86 1004.75 1004.78 1004.96 1005.27 1005.71 1006.25 1006.88 1007.58 1008.31 1009.08 1009.87 1010.67 1011.47 1012.27 1013.06 1013.83 1014.56 1015.24 1015.85 1016.39 1016.85 1017.23 1017.54 1017.78 1017.98 1018.14 1018.28 1018.41
1007.38 1007.47 1007.55 1007.62 1007.65 1007.63 1007.54 1007.39 1007.15 1006.84 1006.48 1006.08 1005.67 1005.28 1004.94 1004.70 1004.56 1004.56 1004.70 1004.98 1005.39 1005.91 1006.53 1007.23 1007.99 1008.79 1009.62 1010.46 1011.31 1012.16 1012.99 1013.79 1014.55 1015.26 1015.90 1016.47 1016.96 1017.36 1017.70 1017.96 1018.18 1018.36 1018.52 1018.65
1007.91 1007.81 1007.73 1007.65 1007.57 1007.48 1007.37 1007.21 1007.00 1006.74 1006.43 1006.08 1005.71 1005.35 1005.03 1004.78 1004.62 1004.59 1004.68 1004.91 1005.27 1005.75 1006.34 1007.03 1007.78 1008.59 1009.43 1010.30 1011.17 1012.05 1012.90 1013.73 1014.52 1015.26 1015.93 1016.54 1017.07 1017.52 1017.90 1018.21 1018.47 1018.69 1018.87 1019.02
1008.35 1008.09 1007.86 1007.67 1007.51 1007.37 1007.24 1007.10 1006.94 1006.74 1006.51 1006.23 1005.93 1005.62 1005.33 1005.08 1004.92 1004.85 1004.90 1005.08 1005.39 1005.82 1006.37 1007.02 1007.75 1008.54 1009.38 1010.24 1011.11 1011.99 1012.85 1013.69 1014.50 1015.26 1015.97 1016.61 1017.19 1017.70 1018.14 1018.52 1018.84 1019.10 1019.32 1019.49
1008.64 1008.27 1007.94 1007.66 1007.45 1007.29 1007.17 1007.07 1006.97 1006.85 1006.69 1006.50 1006.27 1006.02 1005.77 1005.55 1005.39 1005.31 1005.33 1005.47 1005.73 1006.12 1006.62 1007.22 1007.91 1008.67 1009.47 1010.30 1011.15 1012.01 1012.86 1013.69 1014.50 1015.28 1016.02 1016.71 1017.34 1017.91 1018.41 1018.86 1019.24 1019.56 1019.82 1020.02
1008.77 1008.33 1007.95 1007.64 1007.41 1007.26 1007.17 1007.12 1007.08 1007.03 1006.96 1006.84 1006.69 1006.51 1006.31 1006.12 1005.97 1005.89 1005.90 1006.01 1006.24 1006.58 1007.04 1007.59 1008.23 1008.94 1009.69 1010.48 1011.28 1012.11 1012.93 1013.74 1014.55 1015.33 1016.09 1016.81 1017.48 1018.11 1018.68 1019.18 1019.62 1019.98 1020.28 1020.52
1008.76 1008.32 1007.94 1007.64 1007.44 1007.32 1007.26 1007.26 1007.28 1007.30 1007.29 1007.24 1007.15 1007.02 1006.86 1006.71 1006.59 1006.52 1006.52 1006.62 1006.82 1007.13 1007.55 1008.06 1008.65 1009.30 1010.00 1010.73 1011.48 1012.26 1013.04 1013.83 1014.61 1015.39 1016.15 1016.89 1017.60 1018.27 1018.88 1019.43 1019.91 1020.32 1020.65 1020.91
1008.66 1008.28 1007.95 1007.70 1007.55 1007.48 1007.47 1007.52 1007.58 1007.64 1007.68 1007.67 1007.61 1007.52 1007.39 1007.27 1007.16 1007.10 1007.11 1007.21 1007.40 1007.68 1008.07 1008.54 1009.08 1009.68 1010.33 1011.00 1011.71 1012.43 1013.17 1013.92 1014.68 1015.44 1016.20 1016.94 1017.66 1018.35 1018.99 1019.56 1020.07 1020.51 1020.86 1021.14
Thickness
5751 5739 5730 5736 5741 5740 5735 5729 5725 5733 5746 5740 5733 5735 5742 5748 5747 5745 5745 5746 5745 5746 5751 5751 5750 5748 5746 5744 5742 5739 5736 5734 5731 5727 5724 5722 5720 5721 5721 5721 5720 5719 5718 5716
5738 5730 5741 5748 5745 5739 5732 5724 5723 5732 5742 5736 5731 5734 5745 5748 5746 5746 5745 5744 5745 5746 5747 5746 5746 5743 5742 5740 5738 5737 5734 5731 5729 5725 5723 5721 5719 5718 5718 5717 5716 5715 5714 5712
5726 5735 5746 5741 5735 5730 5727 5723 5723 5725 5733 5737 5728 5723 5735 5745 5748 5747 5746 5747 5748 5747 5745 5743 5742 5740 5738 5736 5735 5735 5732 5729 5726 5724 5721 5718 5716 5714 5712 5711 5711 5711 5710 5708
5732 5741 5739 5733 5729 5728 5719 5732 5731 5727 5718 5715 5722 5702 5725 5737 5738 5741 5741 5744 5745 5747 5746 5743 5740 5737 5735 5733 5733 5732 5729 5727 5724 5721 5717 5713 5708 5705 5707 5707 5707 5707 5706 5705
5727 5735 5731 5725 5729 5731 5725 5735 5730 5726 5719 5713 5720 5707 5718 5734 5729 5735 5741 5743 5744 5746 5745 5742 5739 5736 5734 5732 5730 5729 5727 5724 5721 5719 5715 5711 5708 5707 5706 5705 5703 5702 5702 5701
5732 5741 5737 5731 5735 5734 5731 5727 5725 5724 5715 5697 5715 5709 5709 5726 5731 5735 5740 5743 5743 5744 5743 5741 5739 5736 5732 5730 5727 5725 5722 5720 5718 5716 5713 5709 5706 5705 5702 5700 5698 5697 5696 5696
5721 5729 5736 5736 5724 5725 5722 5706 5692 5691 5689 5697 5723 5714 5715 5735 5743 5742 5739 5740 5743 5743 5741 5737 5734 5730 5727 5725 5723 5721 5718 5715 5715 5713 5711 5709 5706 5703 5700 5698 5695 5693 5691 5690
5705 5707 5725 5729 5721 5712 5715 5707 5685 5676 5684 5696 5712 5708 5722 5742 5745 5745 5742 5739 5740 5739 5738 5735 5732 5728 5725 5723 5720 5718 5715 5712 5711 5710 5708 5707 5704 5701 5698 5697 5694 5692 5689 5688
5704 5704 5725 5729 5728 5719 5708 5706 5711 5695 5693 5689 5702 5715 5725 5738 5736 5737 5735 5734 5733 5734 5733 5731 5730 5727 5724 5720 5718 5715 5712 5709 5708 5707 5705 5703 5701 5698 5696 5695 5693 5690 5688 5687
5709 5698 5714 5723 5723 5720 5717 5712 5702 5689 5678 5675 5693 5703 5706 5714 5719 5725 5726 5726 5728 5729 5729 5727 5725 5724 5722 5719 5716 5713 5710 5707 5705 5703 5701 5700 5697 5695 5693 5691 5689 5687 5686 5684
5709 5696 5701 5707 5704 5703 5707 5704 5701 5695 5691 5676 5672 5689 5720 5717 5719 5719 5720 5723 5724 5722 5722 5722 5720 5719 5717 5714 5712 5708 5706 5703 5700 5699 5697 5695 5693 5691 5689 5686 5685 5684 5682 5681
5705 5695 5690 5701 5715 5718 5710 5705 5699 5680 5680 5685 5676 5685 5725 5721 5721 5719 5718 5719 5720 5719 5716 5716 5715 5713 5710 5707 5705 5703 5700 5698 5695 5694 5692 5690 5688 5686 5684 5682 5681 5679 5677 5676
5694 5686 5677 5682 5694 5703 5700 5701 5699 5693 5684 5676 5669 5683 5718 5717 5714 5714 5713 5712 5713 5712 5711 5709 5706 5705 5703 5701 5699 5697 5694 5692 5691 5688 5686 5684 5682 5680 5678 5676 5675 5674 5672 5670
5691 5682 5675 5668 5679 5690 5687 5691 5694 5686 5673 5673 5678 5686 5700 5704 5703 5705 5706 5706 5706 5705 5703 5700 5697 5697 5696 5694 5692 5690 5688 5687 5685 5682 5679 5677 5676 5674 5672 5671 5669 5667 5666 5664
5686 5675 5680 5685 5691 5692 5688 5686 5686 5682 5680 5674 5679 5683 5691 5698 5699 5700 5702 5701 5699 5697 5695 5693 5690 5689 5688 5687 5685 5683 5681 5680 5678 5675 5672 5671 5670 5669 5666 5664 5662 5660 5659 5657
5680 5671 5672 5674 5684 5685 5681 5685 5683 5681 5682 5680 5679 5680 5693 5695 5695 5694 5693 5691 5688 5687 5686 5685 5685 5683 5682 5681 5679 5676 5674 5673 5671 5668 5665 5664 5663 5661 5658 5656 5654 5652 5650 5649
5670 5665 5659 5659 5672 5671 5667 5681 5681 5680 5683 5679 5670 5674 5684 5682 5681 5681 5681 5680 5678 5678 5678 5678 5678 5677 5676 5676 5674 5670 5668 5666 5663 5660 5658 5656 5655 5652 5650 5648 5646 5644 5642 5641
5664 5659 5654 5652 5654 5641 5668 5689 5685 5678 5677 5676 5672 5673 5673 5673 5674 5676 5676 5672 5671 5671 5670 5671 5672 5672 5671 5671 5669 5666 5662 5659 5656 5653 5650 5649 5646 5644 5642 5639 5637 5635 5635 5633
5667 5654 5645 5642 5639 5647 5664 5673 5671 5665 5661 5667 5664 5663 5664 5667 5666 5665 5666 5665 5664 5664 5664 5664 5665 5665 5665 5664 5663 5659 5654 5651 5648 5645 5643 5641 5638 5636 5633 5630 5628 5627 5625 5624
5662 5656 5642 5636 5628 5628 5649 5662 5670 5661 5645 5655 5655 5652 5652 5652 5641 5644 5653 5654 5654 5655 5656 5656 5656 5657 5656 5656 5655 5651 5646 5643 5640 5637 5635 5633 5631 5628 5625 5623 5621 5619 5617 5616
5644 5641 5635 5631 5627 5634 5646 5655 5657 5634 5631 5644 5645 5643 5641 5637 5634 5640 5643 5643 5644 5645 5646 5647 5647 5646 5646 5647 5645 5642 5638 5635 5634 5631 5628 5625 5622 5620 5618 5616 5614 5611 5610 5608
5638 5632 5631 5629 5621 5623 5641 5642 5632 5629 5636 5636 5634 5633 5631 5630 5631 5632 5632 5632 5633 5634 5635 5636 5635 5635 5636 5637 5635 5632 5629 5628 5626 5623 5619 5617 5614 5612 5611 5608 5606 5604 5602 5599
5635 5633 5627 5625 5622 5631 5635 5631 5631 5631 5627 5626 5624 5623 5622 5620 5620 5621 5621 5622 5623 5624 5624 5625 5624 5624 5625 5626 5625 5621 5620 5620 5617 5613 5609 5607 5606 5604 5602 5599 5597 5595 5593 5591
5629 5633 5626 5621 5623 5625 5626 5625 5623 5622 5618 5617 5616 5615 5614 5611 5611 5611 5611 5612 5612 5613 5614 5614 5614 5613 5613 5615 5614 5612 5611 5610 5607 5603 5601 5599 5597 5595 5593 5591 5589 5586 5584 5583
5616 5617 5614 5612 5615 5614 5615 5614 5613 5611 5609 5608 5607 5606 5605 5603 5602 5602 5602 5602 5602 5604 5604 5604 5603 5603 5603 5604 5603 5603 5601 5599 5596 5594 5592 5589 5587 5585 5583 5581 5579 5578 5577 5577
5611 5607 5602 5600 5606 5603 5602 5605 5604 5600 5598 5596 5595 5595 5596 5594 5593 5593 5593 5593 5593 5594 5594 5594 5594 5593 5593 5593 5592 5592 5592 5590 5587 5585 5583 5580 5578 5575 5573 5571 5570 5570 5570 5570